Tracking 19562 objects as of 24-Mar-2019
HD Live streaming from Space Station
objects crossing your sky now

TELSTAR 303

Track TELSTAR 303 now!
TELSTAR 303 is classified as:


NORAD ID: 15826
Int'l Code: 1985-048D
Perigee: 35,887.2 km
Apogee: 35,922.5 km
Inclination: 15.2 °
Period: 1,441.8 minutes
Semi major axis: 42275 km
RCS: 5.0403 m2 (large)
Launch date: June 17, 1985
Source: United States (US)
Launch site: AIR FORCE EASTERN TEST RANGE (AFETR)
aabbcc
Your satellite tracking list
Your tracking list is empty




NASA's NSSDC Master Catalog

Two Line Element Set (TLE):
1 15826U 85048D   19082.46518618 +.00000074 +00000-0 +00000-0 0  9997
2 15826 015.2046 008.2160 0004173 318.1740 230.3378 00.99876690020101
Source of the keplerian elements: AFSPC